Tracking 32941 objects as of 15-Jan-2026
HD Live streaming from Space Station
objects crossing your sky now

STARLINK-11595

Track STARLINK-11595 now!
10-day predictions
STARLINK-11595 is classified as:


NORAD ID: 63669
Int'l Code: 2025-085F
Perigee: 360.8 km
Apogee: 365.8 km
Inclination: 43.0 °
Period: 91.7 minutes
Semi major axis: 6734 km
RCS: Unknown
Launch date: April 28, 2025
Source: United States (US)
Launch site: AIR FORCE EASTERN TEST RANGE (AFETR)
Your satellite tracking list
Your tracking list is empty




NASA's NSSDC Master Catalog

Two Line Element Set (TLE):
1 63669U 25085F   26014.67281193  .00124834  00000-0  95679-3 0  9991
2 63669  42.9993 244.2547 0003705 279.9189  80.1260 15.70959315 42396
Source of the keplerian elements: AFSPC